Temp
62 62 62 62 62 62 62 62 63 63 64 64 64 64 64 64 65 88 88 84 85 75 74 94 99 99 100 96 96 95 79 76 80 79 81 89 86 90 92 89 90 93 91 94 97
61 62 62 62 62 62 62 62 63 63 63 64 64 64 64 63 88 91 84 77 76 75 91 93 94 96 92 94 94 88 77 80 86 86 82 87 87 89 85 87 85 87 93 96 96
61 61 61 61 62 61 62 62 62 63 63 63 63 63 64 69 86 89 79 79 77 80 96 100 99 97 91 93 91 90 80 85 85 85 88 84 85 91 85 82 88 87 88 92 94
60 61 61 61 61 61 62 62 62 63 63 63 63 63 64 90 75 94 85 81 79 91 96 98 96 91 88 85 90 83 86 87 88 87 85 84 89 85 87 88 92 91 91 92 92
60 60 60 60 61 61 61 62 62 62 62 63 63 64 84 87 88 99 84 88 95 102 98 95 92 90 85 87 87 85 85 86 88 87 86 88 84 84 86 92 93 92 91 90 92
59 59 60 60 60 60 61 61 60 61 62 63 64 62 86 80 101 102 102 102 101 100 96 96 91 92 88 86 84 87 86 86 87 87 86 82 84 86 87 92 90 89 89 90 92
59 59 59 59 60 60 60 60 60 61 62 64 66 83 84 88 102 103 102 99 100 98 93 96 96 91 90 85 89 87 79 83 84 85 82 85 77 79 89 91 88 87 88 89 91
59 58 58 59 60 60 60 60 60 62 64 66 67 86 85 101 104 101 102 100 101 101 97 98 97 92 88 90 85 81 81 75 84 84 84 80 69 83 90 88 84 86 87 88 89
58 58 58 59 59 60 60 59 62 64 66 68 86 90 85 91 94 100 101 95 97 98 98 97 94 87 87 79 77 80 73 75 78 87 83 79 72 83 88 87 84 85 86 87 88
58 58 58 58 59 59 59 60 67 69 79 91 95 85 92 88 95 97 101 97 93 92 91 89 88 82 83 80 66 69 69 73 73 81 82 78 76 82 85 85 84 85 86 87 88
58 58 57 58 59 58 67 86 84 81 88 86 88 87 90 96 98 95 98 94 92 88 79 86 77 75 78 79 78 75 72 70 76 82 78 75 75 78 82 83 82 84 85 85 86
58 58 58 58 58 59 71 86 90 92 80 92 92 91 94 95 86 91 97 86 84 77 83 80 74 82 83 80 76 74 70 70 76 80 77 74 72 77 80 81 84 84 84 84 85
57 57 58 58 59 67 87 91 99 98 80 86 91 89 89 93 86 86 91 86 81 77 79 73 78 84 79 76 73 73 70 70 69 73 75 72 68 73 81 84 85 84 84 84 83
57 58 58 58 69 92 91 97 101 97 71 77 82 88 90 91 81 92 92 85 80 75 78 76 83 78 75 73 75 67 76 73 69 65 58 71 55 67 75 77 81 81 82 82 83
56 58 58 52 82 90 93 100 99 91 56 80 84 96 92 84 85 83 91 84 75 75 75 72 76 74 71 72 75 67 74 70 68 64 63 64 59 66 75 72 76 80 82 83 84
56 57 55 79 84 96 100 98 91 68 57 75 84 81 81 84 83 84 84 88 85 76 77 76 84 79 75 76 75 75 70 69 68 65 54 63 62 62 69 71 75 80 81 82 83
56 56 62 88 88 100 98 89 68 61 80 74 76 80 80 78 78 78 75 74 70 61 64 71 75 79 77 69 75 73 63 49 47 48 49 65 60 63 71 77 77 76 77 80 81
55 53 77 95 99 96 90 76 59 73 74 80 77 78 73 76 75 75 72 69 74 70 63 61 59 71 76 70 65 65 62 50 39 42 49 61 52 61 73 74 76 75 74 75 73
53 86 87 95 96 92 80 65 67 71 76 73 76 71 72 76 73 72 72 70 71 71 58 56 59 72 73 74 71 63 57 67 53 55 48 55 62 71 72 68 69 67 67 67 71
82 87 92 96 94 86 74 63 73 77 76 75 66 73 66 71 69 70 69 72 68 71 71 62 51 66 71 73 72 67 70 53 53 38 38 50 52 56 63 64 64 60 62 64 68
80 82 91 97 93 80 69 72 76 79 76 71 69 67 69 67 69 66 67 72 71 70 71 66 57 58 66 63 62 63 60 62 59 53 39 39 48 65 63 65 64 64 66 66 66
81 76 93 95 75 79 71 73 61 76 78 74 73 71 67 67 65 65 65 68 70 69 61 66 58 50 56 67 71 68 63 61 43 42 49 44 44 67 66 67 66 63 63 61 60
77 83 93 89 69 73 74 73 73 72 72 71 69 71 71 65 58 65 67 73 72 67 61 62 53 42 50 62 66 61 63 62 59 54 45 39 44 63 65 61 64 63 64 61 62
78 74 82 84 80 71 69 70 69 74 71 71 70 71 67 64 68 63 65 71 73 69 61 62 55 50 43 51 58 54 58 61 58 41 44 45 46 53 59 58 61 63 62 62 64
80 72 73 70 72 71 70 70 67 66 72 73 68 68 64 58 61 61 67 67 70 65 66 62 50 55 57 58 59 58 58 59 53 53 44 48 49 55 58 58 60 62 61 61 61
70 68 73 73 72 70 61 67 65 67 67 66 64 67 67 60 61 58 63 62 60 66 63 64 51 55 51 58 58 55 58 56 55 52 51 51 50 58 59 60 59 58 58 57 59
74 77 71 64 71 69 67 67 66 67 69 69 67 64 62 65 67 67 67 65 64 59 57 56 53 49 43 54 54 46 48 52 53 56 51 43 51 53 51 53 54 54 57 57 58
MSLP
1016.26 1016.03 1015.83 1015.62 1015.41 1015.19 1014.93 1014.66 1014.39 1014.07 1013.71 1013.19 1012.73 1012.55 1012.28 1011.93 1011.00 1010.66 1009.72 1010.13 1009.59 1009.13 1009.36 1007.99 1006.65 1005.78 1005.21 1004.56 1004.79 1004.79 1004.20 1002.98 1002.88 1002.85 1003.27 1004.02 1004.30 1004.92 1005.21 1004.80 1005.02 1005.01 1005.20 1005.51 1005.70
1016.31 1016.01 1015.79 1015.56 1015.36 1015.16 1014.91 1014.65 1014.36 1014.02 1013.65 1013.12 1012.79 1012.53 1012.47 1012.06 1010.83 1009.47 1009.98 1009.64 1009.26 1009.03 1008.60 1007.11 1005.57 1005.17 1004.67 1004.12 1004.09 1004.14 1003.75 1003.41 1003.26 1003.58 1004.11 1004.32 1004.70 1004.61 1005.21 1004.80 1005.03 1005.39 1005.63 1005.78 1005.94
1016.33 1016.03 1015.77 1015.54 1015.32 1015.10 1014.88 1014.62 1014.33 1013.97 1013.57 1013.01 1012.64 1012.60 1012.45 1011.97 1010.25 1009.33 1009.54 1009.18 1008.84 1008.57 1008.02 1006.36 1005.36 1004.45 1003.89 1003.84 1003.87 1003.50 1003.73 1003.71 1004.14 1004.61 1004.79 1004.86 1004.92 1004.86 1005.25 1004.80 1004.56 1004.95 1005.53 1005.86 1006.08
1016.33 1016.01 1015.77 1015.55 1015.31 1015.07 1014.84 1014.59 1014.29 1013.95 1013.51 1012.94 1012.51 1012.44 1012.01 1011.11 1009.31 1009.21 1009.18 1008.76 1008.23 1007.81 1007.36 1005.96 1005.09 1004.28 1003.78 1003.68 1004.08 1003.72 1004.30 1004.40 1004.32 1005.06 1005.54 1005.60 1005.37 1005.06 1005.22 1004.87 1005.36 1005.70 1006.20 1006.29 1006.19
1016.35 1016.03 1015.75 1015.53 1015.30 1015.04 1014.77 1014.49 1014.19 1013.87 1013.45 1012.95 1012.60 1012.51 1011.57 1009.65 1008.75 1008.92 1008.87 1008.30 1007.82 1006.74 1006.09 1005.50 1004.83 1004.53 1004.08 1004.12 1004.45 1003.99 1004.51 1005.10 1005.22 1005.65 1005.90 1005.83 1005.59 1005.47 1005.17 1005.28 1005.62 1006.22 1006.46 1006.73 1006.50
1016.36 1016.04 1015.76 1015.50 1015.26 1015.01 1014.70 1014.38 1014.10 1013.74 1013.30 1012.93 1012.76 1012.63 1011.58 1009.33 1008.35 1008.36 1008.09 1007.60 1007.37 1006.67 1006.57 1006.08 1005.73 1005.64 1004.93 1004.73 1004.83 1004.78 1004.91 1004.84 1005.30 1005.26 1005.87 1006.05 1005.76 1005.37 1005.54 1005.47 1005.52 1006.33 1006.59 1006.67 1006.46
1016.37 1016.06 1015.77 1015.48 1015.19 1014.91 1014.60 1014.28 1013.97 1013.60 1013.14 1012.60 1012.79 1012.35 1010.52 1008.31 1007.94 1008.09 1007.94 1007.86 1007.78 1007.44 1006.81 1006.73 1006.44 1005.70 1005.38 1004.75 1005.16 1005.12 1005.11 1004.71 1004.86 1005.13 1005.64 1005.67 1005.95 1005.33 1004.85 1005.04 1005.30 1006.06 1006.53 1006.44 1006.52
1016.30 1016.02 1015.72 1015.42 1015.13 1014.84 1014.51 1014.14 1013.75 1013.37 1012.89 1012.31 1012.53 1011.86 1008.98 1008.32 1008.24 1008.07 1007.79 1007.46 1007.60 1007.49 1007.38 1007.22 1006.92 1006.19 1005.77 1005.46 1005.30 1004.60 1004.43 1003.26 1003.84 1004.55 1005.07 1006.17 1005.60 1004.76 1004.12 1004.62 1005.32 1005.86 1006.11 1006.22 1006.26
1016.19 1015.92 1015.66 1015.36 1015.05 1014.73 1014.38 1013.95 1013.49 1013.09 1012.72 1012.09 1011.67 1010.31 1008.26 1008.87 1008.33 1007.92 1007.87 1007.48 1007.52 1007.23 1007.12 1007.27 1006.75 1006.06 1005.62 1005.11 1004.23 1004.07 1003.57 1003.46 1003.42 1003.59 1004.49 1005.25 1005.03 1004.85 1004.75 1004.61 1004.65 1004.97 1005.41 1005.74 1005.92
1016.09 1015.77 1015.51 1015.26 1014.97 1014.63 1014.24 1013.96 1013.31 1012.96 1012.06 1011.37 1010.30 1009.67 1008.15 1007.86 1007.95 1008.13 1007.94 1008.02 1007.54 1007.24 1006.57 1006.45 1005.80 1005.33 1004.61 1004.20 1004.57 1004.72 1004.87 1004.51 1004.26 1004.13 1004.09 1004.25 1004.26 1004.43 1004.50 1004.41 1004.22 1004.31 1004.53 1004.75 1004.92
1016.00 1015.63 1015.36 1015.13 1014.93 1014.73 1013.84 1013.29 1013.06 1012.00 1010.70 1009.05 1008.06 1007.99 1007.65 1007.95 1008.40 1007.82 1007.86 1007.80 1007.35 1006.90 1006.29 1005.89 1005.90 1004.57 1004.47 1005.34 1005.96 1006.01 1005.75 1005.26 1004.83 1004.54 1004.40 1004.36 1004.34 1004.44 1004.31 1004.09 1003.80 1003.77 1003.92 1004.12 1004.58
1015.76 1015.42 1015.14 1014.96 1014.82 1014.77 1014.44 1011.83 1010.16 1009.88 1009.01 1008.39 1008.09 1007.73 1007.85 1007.94 1007.64 1007.66 1008.01 1007.65 1007.29 1006.80 1006.26 1005.75 1004.99 1004.82 1005.38 1006.02 1006.37 1006.31 1006.11 1005.60 1004.99 1004.87 1004.86 1004.73 1004.55 1004.54 1004.06 1003.34 1002.76 1002.96 1003.55 1004.15 1004.85
1015.62 1015.20 1014.97 1014.75 1014.58 1014.36 1012.34 1010.67 1009.95 1009.43 1008.75 1007.65 1007.74 1007.49 1007.86 1008.03 1007.32 1007.44 1008.09 1007.99 1007.54 1006.92 1006.21 1006.06 1005.75 1005.41 1005.77 1006.33 1006.38 1006.28 1006.06 1005.75 1005.93 1006.15 1006.00 1005.54 1004.30 1003.60 1002.82 1002.39 1002.33 1002.95 1003.83 1004.63 1005.20
1015.63 1015.20 1014.92 1014.66 1014.45 1011.55 1010.36 1010.16 1009.48 1009.67 1008.68 1007.18 1007.27 1006.94 1007.60 1007.60 1007.64 1008.17 1008.53 1008.74 1008.10 1007.45 1006.96 1006.60 1005.91 1006.04 1006.52 1006.56 1006.56 1006.35 1006.52 1006.86 1006.99 1007.04 1006.35 1006.43 1004.45 1004.07 1002.81 1001.88 1001.95 1002.61 1003.34 1004.08 1004.66
1015.67 1015.25 1014.87 1014.92 1013.39 1010.58 1010.38 1009.85 1009.83 1009.97 1007.70 1007.15 1006.75 1007.25 1007.05 1007.50 1007.55 1008.40 1009.02 1008.85 1008.43 1008.04 1008.22 1007.05 1006.39 1006.38 1006.82 1007.17 1007.55 1007.83 1008.01 1008.11 1008.09 1007.58 1006.95 1006.24 1005.29 1003.12 1002.29 1001.99 1002.37 1002.25 1002.84 1003.62 1004.47
1015.60 1015.23 1014.88 1013.25 1012.74 1010.56 1010.14 1010.10 1010.26 1009.45 1006.78 1006.36 1006.59 1006.86 1007.13 1007.28 1007.54 1008.27 1008.55 1008.59 1008.40 1008.41 1008.07 1007.08 1006.78 1006.97 1007.25 1008.01 1008.22 1008.39 1008.61 1008.21 1007.92 1007.42 1006.39 1005.44 1004.62 1003.45 1002.65 1002.52 1002.43 1002.67 1003.12 1003.84 1004.56
1015.67 1015.01 1014.90 1012.83 1011.12 1010.63 1010.51 1010.10 1009.56 1007.79 1006.73 1006.44 1006.41 1006.75 1006.81 1006.77 1007.34 1008.07 1008.66 1008.47 1008.28 1008.90 1008.41 1008.01 1006.85 1007.30 1008.25 1008.55 1008.41 1008.17 1008.84 1008.89 1008.53 1008.18 1007.26 1006.09 1005.09 1004.06 1003.61 1003.29 1003.23 1003.56 1004.24 1004.84 1005.38
1015.56 1015.13 1013.08 1011.66 1011.19 1011.05 1010.75 1010.16 1008.94 1006.85 1006.71 1007.50 1007.61 1007.28 1007.30 1007.47 1007.97 1008.21 1008.77 1008.58 1009.10 1009.79 1009.93 1008.92 1008.14 1008.47 1008.92 1009.11 1009.20 1009.45 1009.77 1009.96 1009.34 1009.30 1008.29 1008.08 1006.55 1005.16 1004.65 1004.88 1005.13 1005.96 1006.59 1006.70 1007.39
1015.12 1013.61 1012.38 1011.28 1011.46 1011.49 1010.86 1009.46 1008.38 1008.30 1008.41 1008.44 1008.19 1007.57 1007.15 1007.39 1008.55 1008.92 1008.63 1008.94 1009.88 1010.90 1011.57 1011.15 1010.06 1010.01 1009.99 1009.71 1010.02 1009.85 1009.95 1009.98 1010.44 1010.72 1009.96 1008.55 1006.95 1005.40 1005.22 1006.80 1007.51 1008.48 1009.20 1009.11 1009.35
1014.60 1012.59 1010.87 1011.18 1011.44 1011.39 1010.67 1009.26 1008.94 1009.72 1009.88 1009.46 1009.05 1008.39 1008.26 1008.13 1008.66 1009.00 1009.35 1010.01 1010.78 1011.86 1012.51 1012.65 1012.04 1011.61 1010.41 1010.38 1010.28 1009.79 1009.79 1010.26 1011.02 1011.24 1010.27 1008.79 1007.86 1006.66 1006.31 1007.19 1008.28 1010.15 1010.16 1010.08 1010.57
1014.48 1011.69 1011.04 1010.99 1011.01 1010.92 1009.79 1009.33 1009.62 1010.43 1010.97 1010.61 1010.12 1009.89 1009.80 1009.74 1009.92 1010.17 1010.32 1010.57 1011.61 1012.26 1013.11 1013.39 1013.17 1012.30 1011.65 1010.60 1009.63 1009.59 1009.55 1009.96 1010.44 1011.09 1010.99 1010.19 1008.29 1008.20 1007.58 1007.82 1008.36 1009.24 1009.97 1010.69 1011.00
1013.92 1011.23 1010.96 1010.80 1010.72 1009.66 1009.95 1010.69 1011.64 1010.91 1011.24 1011.28 1011.42 1011.10 1011.18 1011.24 1011.25 1011.15 1011.06 1011.33 1012.87 1013.48 1013.81 1014.04 1013.92 1013.16 1012.44 1010.98 1010.44 1010.05 1010.04 1010.62 1011.78 1012.76 1012.23 1011.85 1009.05 1009.94 1009.12 1009.02 1009.26 1009.83 1010.40 1011.61 1012.32
1014.41 1011.52 1010.86 1010.88 1010.32 1009.82 1010.77 1011.18 1011.94 1012.04 1012.04 1012.19 1012.05 1012.19 1012.48 1012.55 1012.56 1012.15 1011.91 1012.20 1012.96 1013.86 1014.62 1015.20 1015.03 1014.31 1012.93 1010.87 1010.84 1010.57 1010.75 1010.94 1011.17 1011.54 1011.47 1011.87 1010.17 1010.89 1010.25 1010.38 1010.68 1010.55 1010.94 1011.21 1011.03
1014.79 1011.85 1010.99 1011.10 1011.61 1011.72 1011.64 1011.48 1012.00 1012.80 1012.91 1013.12 1013.03 1013.11 1013.14 1013.02 1012.81 1012.67 1012.51 1012.58 1013.09 1013.90 1014.91 1015.77 1015.82 1015.39 1014.34 1012.89 1012.25 1011.60 1011.23 1011.01 1011.09 1011.26 1011.93 1012.32 1012.29 1011.99 1010.46 1010.74 1010.84 1010.55 1011.37 1011.66 1011.29
1014.80 1013.84 1013.91 1012.00 1012.13 1012.77 1012.83 1012.66 1012.47 1012.61 1013.17 1013.25 1013.27 1013.37 1013.87 1014.02 1013.71 1013.38 1013.03 1013.17 1013.59 1014.07 1014.81 1015.39 1015.58 1015.16 1014.34 1013.66 1012.71 1012.01 1011.33 1010.99 1011.46 1011.94 1012.19 1012.36 1012.03 1011.61 1011.53 1011.58 1011.39 1011.37 1011.54 1011.51 1011.37
1016.50 1015.93 1015.02 1013.75 1013.68 1013.34 1013.33 1012.84 1013.35 1013.40 1014.00 1013.55 1014.05 1014.06 1014.38 1014.58 1014.57 1014.17 1014.10 1014.27 1014.26 1014.27 1014.67 1015.10 1015.16 1015.16 1014.58 1013.79 1012.91 1012.18 1011.91 1012.13 1012.41 1013.11 1013.12 1013.07 1012.77 1012.82 1012.80 1012.39 1012.15 1012.34 1012.28 1011.89 1011.45
1018.43 1017.08 1016.35 1014.59 1013.57 1013.43 1013.47 1013.66 1013.98 1014.59 1014.38 1014.72 1014.94 1015.22 1015.13 1015.00 1015.23 1015.01 1014.84 1014.83 1014.83 1015.01 1015.20 1015.64 1015.67 1015.50 1014.63 1014.35 1013.43 1013.08 1014.00 1013.58 1013.53 1013.41 1013.84 1014.03 1013.78 1014.10 1013.91 1013.71 1013.44 1013.10 1012.86 1012.23 1011.58
Wind_Speed
10 10 9 9 9 9 10 10 10 10 11 13 14 13 13 13 16 8 7 6 7 13 9 14 13 9 13 7 8 6 12 8 10 7 8 11 5 8 2 8 3 10 10 10 4
10 10 10 9 9 9 9 10 10 10 11 13 13 13 12 13 13 10 2 8 11 8 11 14 14 10 12 8 6 8 9 8 10 11 9 7 3 2 1 8 8 8 5 6 5
10 10 10 9 9 9 9 9 10 10 11 13 13 12 11 12 11 9 4 9 12 12 15 15 6 11 6 4 1 10 6 7 6 10 8 10 6 10 4 12 9 8 9 4 4
11 11 10 9 9 9 9 9 10 12 12 14 14 13 13 10 2 6 7 12 15 16 16 9 9 12 8 2 2 6 2 7 5 7 4 8 10 5 9 6 8 8 4 7 2
11 11 10 10 10 9 9 9 10 11 12 13 13 12 10 7 10 6 10 15 17 9 11 6 8 6 8 2 4 10 4 2 0 4 8 8 7 9 8 11 9 3 3 8 10
12 11 11 10 10 10 10 10 11 11 13 13 12 16 8 9 4 1 6 4 10 12 6 11 8 8 6 6 7 8 6 4 5 7 3 5 10 9 11 12 8 5 8 10 11
12 11 11 10 10 10 10 11 12 12 13 14 7 7 13 4 1 2 4 4 6 8 10 8 10 12 6 7 2 9 9 13 11 8 2 1 10 17 17 12 7 5 10 13 11
12 11 11 10 10 10 11 12 12 12 13 15 6 9 2 3 7 8 3 5 2 6 6 9 11 9 4 5 10 13 14 11 13 12 7 4 12 12 4 9 9 13 12 13 12
12 11 11 11 11 11 12 13 12 12 11 15 11 12 3 5 9 3 6 8 8 7 4 6 10 5 9 15 15 11 8 8 5 6 5 11 14 12 12 13 12 12 13 13 14
13 11 10 11 11 11 13 8 8 9 8 11 11 11 9 6 5 3 1 5 8 9 13 11 8 11 14 5 10 17 15 14 13 13 7 13 15 13 14 15 14 13 15 13 15
13 10 10 9 10 11 11 5 7 7 14 11 7 8 7 7 3 7 4 7 6 11 11 3 9 11 12 9 11 13 14 15 16 14 15 15 16 16 15 17 17 16 13 11 4
14 10 9 9 8 7 6 9 7 9 7 15 10 3 4 2 5 5 3 8 9 12 12 11 12 8 7 7 12 14 15 17 15 16 15 16 20 21 21 21 20 15 8 5 7
13 9 8 8 9 5 12 7 8 7 7 8 10 12 9 9 4 5 6 10 12 11 11 12 15 14 6 11 13 14 16 16 16 18 17 20 23 20 18 17 8 5 3 6 6
14 11 7 8 2 12 4 4 7 4 7 14 8 5 5 6 5 3 5 8 11 14 14 8 15 5 9 12 14 14 16 18 17 17 16 17 18 20 20 19 11 12 13 12 14
16 13 10 3 11 8 6 6 10 3 6 11 10 6 4 7 3 9 2 5 10 14 12 16 15 13 10 11 11 14 16 15 18 19 21 19 14 17 19 3 11 10 6 4 1
19 15 16 6 6 5 7 6 5 7 3 7 8 8 11 11 5 3 6 8 10 9 16 17 10 11 5 10 12 8 15 18 19 17 16 20 15 15 10 14 17 11 7 3 5
19 17 10 8 9 9 8 6 7 9 2 7 4 5 9 5 1 2 8 11 7 9 13 18 11 8 3 8 13 11 14 10 7 9 14 20 19 14 20 20 15 13 13 12 14
18 14 9 9 8 8 7 7 7 2 5 6 4 6 8 1 5 2 8 12 9 3 10 9 9 14 11 7 11 14 13 9 16 14 17 19 14 15 13 19 17 22 25 20 21
17 7 8 4 5 5 7 9 5 12 8 7 11 12 14 9 4 7 9 8 8 9 6 9 8 24 17 11 9 11 12 14 10 13 16 14 20 19 10 16 20 23 23 22 19
5 9 2 4 3 5 7 13 3 7 8 6 10 7 9 11 8 9 8 6 2 4 3 7 16 12 15 7 13 19 14 10 6 7 16 16 21 16 12 15 4 5 13 2 8
4 6 6 5 3 6 9 5 5 8 7 7 11 10 11 10 8 8 6 4 6 4 10 12 9 12 15 16 18 16 13 12 14 11 11 13 13 16 23 24 18 16 18 16 14
6 5 5 4 6 6 7 8 4 8 2 3 5 7 7 9 7 10 10 6 6 7 10 10 6 12 18 23 20 14 12 12 5 12 14 15 20 19 19 22 16 18 13 9 10
7 4 5 5 5 6 6 1 4 7 5 7 6 4 8 7 5 7 7 5 6 4 6 8 4 8 10 8 16 18 15 19 15 12 17 17 15 19 21 17 12 11 15 9 8
6 5 3 2 2 6 6 1 1 6 3 4 7 6 7 8 8 7 10 8 1 5 12 4 7 10 11 18 19 20 23 24 21 8 14 15 19 21 13 18 20 17 12 16 19
3 4 4 5 6 6 2 3 5 0 1 3 5 4 4 6 12 14 10 15 15 5 5 4 11 15 17 21 23 25 25 24 19 20 15 17 19 20 20 21 20 18 20 22 22
6 5 7 8 4 6 5 3 4 6 4 5 2 10 9 9 11 15 14 12 8 10 11 8 14 18 21 23 21 23 23 16 14 12 10 16 19 21 21 21 20 22 23 24 22
8 5 6 4 6 6 6 5 3 2 2 3 6 8 10 10 12 13 14 14 15 14 13 12 11 14 19 22 22 19 10 17 15 17 16 15 19 20 20 20 18 18 23 24 23
Wind_Direction
354 349 347 342 338 333 331 330 327 325 319 312 315 323 323 326 304 242 34 336 293 307 316 267 234 241 244 212 234 256 270 262 255 75 98 132 211 153 296 275 30 1 34 58 71
354 349 347 344 339 336 336 331 328 323 318 312 316 318 331 329 292 70 340 272 269 274 282 248 228 204 240 234 215 225 251 342 37 48 22 55 315 140 267 230 166 149 95 100 49
353 349 349 345 340 337 336 332 327 321 319 311 312 323 330 316 273 71 261 270 269 279 279 291 292 282 239 326 149 257 4 54 83 37 9 337 326 264 252 275 230 142 108 84 72
354 350 349 344 339 335 333 330 326 323 318 311 316 329 316 293 12 83 275 277 277 279 269 246 246 254 302 301 306 282 20 353 76 90 298 263 265 305 270 269 57 53 33 322 261
354 350 348 343 338 332 326 321 319 315 310 309 320 345 318 236 90 153 243 262 260 299 349 334 318 321 297 36 280 279 115 195 157 233 224 292 280 258 304 265 119 278 198 261 264
350 348 344 340 333 326 322 318 314 309 304 302 315 316 267 249 125 157 299 7 358 356 27 354 8 345 316 323 296 11 292 245 195 212 276 233 265 245 227 262 160 228 267 264 274
344 342 339 334 329 323 318 312 306 298 291 288 304 304 269 167 26 148 288 19 341 355 1 7 324 301 355 255 89 283 257 215 212 202 241 330 265 250 249 238 189 215 274 272 257
339 335 333 329 324 317 311 305 296 288 286 282 290 287 332 76 324 233 255 215 185 337 350 354 319 299 294 341 233 234 227 270 164 187 164 164 273 289 3 186 203 233 252 264 271
334 328 326 323 319 314 311 303 286 283 266 286 279 220 224 123 227 86 285 330 325 267 242 281 278 302 274 245 243 208 312 324 307 203 161 216 271 272 287 281 251 234 231 247 257
331 324 319 317 315 314 312 290 315 294 239 261 265 278 165 206 118 322 301 269 306 309 281 228 255 261 247 292 343 327 330 323 310 310 249 259 283 299 287 288 285 273 259 252 253
332 320 311 309 310 320 315 226 219 197 238 260 137 280 103 93 175 222 32 311 267 270 266 317 305 295 10 17 335 310 298 297 297 292 290 290 292 285 285 281 270 271 269 265 295
335 320 306 299 303 317 278 256 29 316 262 221 275 299 23 254 215 208 273 279 328 302 308 269 253 18 351 321 305 291 282 280 291 311 316 307 298 294 279 266 260 246 265 318 281
341 330 315 314 319 255 237 343 313 301 269 157 207 210 192 217 263 65 341 331 305 303 304 319 308 326 359 306 289 283 290 300 316 316 297 285 278 284 302 297 251 172 242 286 306
350 347 340 324 275 238 197 307 291 27 270 156 189 158 189 249 218 64 6 330 303 306 318 310 287 329 283 279 302 300 338 333 315 306 295 320 296 286 275 259 245 199 210 215 222
346 339 328 257 315 286 7 336 336 236 270 154 169 93 160 243 74 130 186 309 308 324 309 290 305 333 312 305 358 307 321 310 294 282 280 277 268 283 288 241 263 245 243 257 302
341 337 337 209 230 343 307 338 243 237 241 133 139 210 218 206 188 355 287 235 258 286 286 268 252 253 238 328 300 275 283 300 293 280 267 269 267 280 305 315 310 289 241 249 284
332 325 317 315 335 348 326 248 234 249 145 138 227 160 249 279 150 231 307 301 292 330 324 327 296 93 58 320 317 319 328 314 300 319 296 318 323 321 323 309 349 13 5 340 317
323 318 253 274 334 347 282 240 259 338 53 51 306 301 254 31 304 278 284 289 133 22 324 315 316 25 16 303 311 296 288 275 293 302 305 318 293 293 10 13 8 6 4 15 15
314 249 242 39 340 315 271 239 329 7 16 355 318 259 269 157 183 285 273 325 36 23 333 321 298 335 322 315 337 314 299 295 303 288 282 286 288 285 50 49 4 356 340 341 350
293 267 208 322 26 282 253 259 55 38 345 322 295 319 320 333 315 338 327 83 69 79 23 300 304 303 294 309 268 258 249 280 276 290 274 285 305 294 326 3 96 329 282 286 332
254 247 74 318 263 252 251 31 74 84 6 339 338 325 317 318 334 311 301 38 93 338 353 311 278 288 299 284 303 319 302 262 272 281 286 294 283 326 331 335 337 346 357 350 340
299 283 49 330 261 229 39 15 343 353 360 311 309 314 321 342 315 301 303 10 62 4 321 325 297 294 301 293 281 266 301 303 9 298 285 297 280 304 324 328 351 352 15 354 302
291 311 89 308 298 354 82 99 13 338 22 338 324 26 345 319 316 299 310 68 61 9 356 356 318 316 306 320 350 320 304 300 290 276 262 284 299 329 310 28 344 331 340 314 258
281 312 109 95 49 334 22 271 196 112 296 313 308 313 288 300 290 280 288 306 72 273 144 158 262 267 278 292 318 305 295 292 287 295 291 288 309 293 347 353 340 355 359 336 322
296 58 8 331 49 333 334 343 308 267 22 261 289 210 351 321 324 294 317 326 316 119 191 219 271 280 296 302 293 301 307 310 338 324 326 330 320 335 350 341 335 342 339 331 321
342 344 345 288 319 285 152 139 310 37 323 328 286 334 336 306 294 298 316 319 306 316 326 312 296 304 296 294 310 303 310 342 331 311 298 337 320 358 342 339 337 339 332 321 315
4 345 281 301 224 256 66 48 18 337 266 312 332 315 307 331 335 305 293 285 275 284 287 289 288 305 296 303 308 303 347 321 334 341 355 326 340 353 336 325 323 328 323 312 313